Location: *
(43.9905°S, 176.4941°W)
Time: 18:23:55
(UTC+00:00)

Nadezhda 3 Rocket - Pass Details

Date: 08 December 2019
Orbit: 957 x 1000 km, 82.9° (Epoch: 28 January)

Event Time Altitude Azimuth Distance (km) Brightness Sun altitude
Exits shadow 11:05:52 38° 47° (NE) 1,457 4.5 -22.9°
Maximum altitude 11:07:39 48° 90° (E) 1,269 4.5 -22.9°
Drops below altitude 10° 11:13:41 10° 161° (SSE) 2,770 7.3 -23.1°
Sets 11:16:19 0° 166° (SSE) 3,732 8.3 -23.1°
